Location: Bucquoy
(50.1391°N, 2.7097°E)
Time: 23:41:49
(UTC+00:00)

Cosmos 1269 Rocket - Pass Details

Date: 06 May 2021
Orbit: 773 x 778 km, 74.1° (Epoch: 21 June)

Event Time Altitude Azimuth Distance (km) Brightness Sun altitude
Rises 01:50:41 0° 333° (NNW) 3,269 7.7 -17.9°
Reaches altitude 10° 01:53:06 10° 330° (NNW) 2,336 6.9 -17.6°
Maximum altitude 01:58:19 61° 252° (WSW) 880 4.0 -17.2°
Enters shadow 02:01:41 22° 178° (S) 1,652 5.3 -16.9°
